This demonstration page uses our WeatherBlox Daily Observations layout. Learn more.

40.92945, -100.16068

Hourly Observations for September 19, 2018

Temp ( °F °C ) Dew Point ( °F °C ) Humidity (%) Winds ( mph kmh ) Pressure ( in mb ) Visibility ( mi km ) Precip ( " mm )
12:15 am 00:15 Clear 69 20.5 65 18.3 87 87 E 8 13 29.8 1009 10 16.0934 0 0
12:35 am 00:35 Clear 68 20.2 65 18.5 90 90 ESE 7 11 29.8 1009 10 16.0934 0 0
12:55 am 00:55 Clear 68 20.1 65 18.4 90 90 E 6 9 29.8 1009 10 16.0934 0 0
1:15 am 01:15 Clear 68 20 65 18.5 91 91 ESE 7 11 29.8 1009 10 16.0934 0 0
1:35 am 01:35 Clear 68 19.8 65 18.5 92 92 ESE 6 9 29.8 1009 10 16.0934 0 0
2:00 am 02:00 Clear 67 19.5 65 18.2 92 92 ESE 5 7 29.77 1008 10 16.0934 0 0
2:15 am 02:15 Clear 67 19.5 65 18.3 93 93 SE 6 9 29.77 1008 10 16.0934 0 0
2:35 am 02:35 Clear 67 19.5 65 18.3 93 93 ESE 6 9 29.77 1008 10 16.0934 0 0
2:55 am 02:55 Clear 67 19.6 65 18.5 93 93 ESE 5 7 29.77 1008 7 11.26538 0 0
3:15 am 03:15 Partly Cloudy 66 19 64 17.9 93 93 E 6 9 29.77 1008 7 11.26538 0 0
3:35 am 03:35 Clear with Mist and Fog 65 18.5 64 17.6 95 95 ESE 3 6 29.77 1008 5 8.0467 0 0
3:55 am 03:55 Clear 66 18.8 64 18 95 95 SE 6 9 29.74 1007 7 11.26538 0 0
4:15 am 04:15 Clear 66 18.8 64 17.8 94 94 E 3 6 29.74 1007 7 11.26538 0 0
4:35 am 04:35 Clear 65 18.3 64 17.5 95 95 ESE 6 9 29.74 1007 7 11.26538 0 0
4:55 am 04:55 Clear 65 18.3 63 17.3 94 94 ESE 6 9 29.74 1007 7 11.26538 0 0
5:15 am 05:15 Clear 65 18.5 64 17.5 94 94 ESE 5 7 29.74 1007 7 11.26538 0 0
5:35 am 05:35 Clear 64 17.6 62 16.6 94 94 E 6 9 29.77 1008 7 11.26538 0 0
5:55 am 05:55 Clear with Mist and Fog 63 17.2 61 16.3 94 94 ESE 5 7 29.77 1008 5 8.0467 0 0
6:15 am 06:15 Clear 65 18.3 63 17.3 94 94 SE 6 9 29.74 1007 10 16.0934 0 0
6:35 am 06:35 Clear 65 18.3 63 17 92 92 SE 6 9 29.74 1007 10 16.0934 0 0
6:55 am 06:55 Clear 66 18.8 63 17.3 91 91 SE 7 11 29.74 1007 10 16.0934 0 0
7:15 am 07:15 Clear 66 19 63 17.2 89 89 SSE 8 13 29.74 1007 10 16.0934 0 0
7:35 am 07:35 Sunny 66 19 63 17.2 89 89 SSE 6 9 29.74 1007 10 16.0934 0 0
7:55 am 07:55 Sunny 66 19.1 64 17.5 91 91 SSE 7 11 29.74 1007 10 16.0934 0 0
8:15 am 08:15 Sunny 68 19.8 64 17.8 88 88 SSE 8 13 29.74 1007 10 16.0934 0 0
8:35 am 08:35 Sunny 69 20.5 65 18.2 87 87 SSE 9 15 29.74 1007 10 16.0934 0 0
8:55 am 08:55 Sunny 70 21.2 65 18.5 85 85 SSE 9 15 29.74 1007 10 16.0934 0 0
9:15 am 09:15 Sunny 72 22 66 18.8 82 82 SSE 12 19 29.71 1006 10 16.0934 0 0
9:35 am 09:35 Sunny 74 23.4 66 19.1 77 77 SSE 12 19 29.71 1006 10 16.0934 0 0
9:55 am 09:55 Sunny 77 24.8 66 19 70 70 S 16 26 29.71 1006 10 16.0934 0 0
10:15 am 10:15 Sunny 79 26.1 66 19 65 65 S 15 24 29.68 1005 10 16.0934 0 0
10:35 am 10:35 Sunny 80 26.9 66 18.9 62 62 SSE 12 19 29.68 1005 10 16.0934 0 0
10:55 am 10:55 Sunny 82 27.5 66 18.9 59 59 SSE 10 17 29.68 1005 10 16.0934 0 0
11:15 am 11:15 Sunny 82 28 66 18.9 58 58 S 7 11 29.71 1006 10 16.0934 0 0
11:35 am 11:35 Sunny 83 28.6 66 19 56 56 S 7 11 29.68 1005 10 16.0934 0 0
11:55 am 11:55 Sunny 85 29.4 66 19 54 54 S 7 11 29.65 1004 10 16.0934 0 0
12:15 pm 12:15 Sunny 86 30.1 66 19 51 51 S 7 11 29.65 1004 10 16.0934 0 0
12:35 pm 12:35 Sunny 88 31 66 19.1 49 49 SSE 10 17 29.65 1004 10 16.0934 0 0
12:55 pm 12:55 Sunny 89 31.4 66 18.8 47 47 SE 10 17 29.65 1004 10 16.0934 0 0
1:15 pm 13:15 Sunny 89 31.9 66 19 46 46 SSE 10 17 29.62 1003 10 16.0934 0 0
1:35 pm 13:35 Sunny 90 32.1 66 18.7 45 45 SSE 16 26 29.59 1002 10 16.0934 0 0
1:55 pm 13:55 Sunny 91 32.8 66 18.8 43 43 SSE 13 20 29.59 1002 10 16.0934 0 0
2:15 pm 14:15 Sunny 92 33.3 65 18.6 42 42 S 13 20 29.59 1002 10 16.0934 0 0
2:35 pm 14:35 Partly Cloudy 93 33.7 65 18.5 41 41 S 9 15 29.56 1001 10 16.0934 0 0
2:55 pm 14:55 Partly Cloudy 94 34.2 65 18.3 39 39 SE 12 19 29.56 1001 10 16.0934 0 0
3:15 pm 15:15 Partly Cloudy 93 33.9 65 18.3 40 40 S 10 17 29.56 1001 10 16.0934 0 0
3:35 pm 15:35 Partly Cloudy 94 34.5 64 18 38 38 SSE 12 19 29.56 1001 10 16.0934 0 0
3:55 pm 15:55 Mostly Cloudy 94 34.5 64 18 38 38 SE 10 17 29.53 1000 10 16.0934 0 0
4:15 pm 16:15 Mostly Cloudy 95 35.1 64 17.6 35 35 SSE 12 19 29.53 1000 10 16.0934 0 0
4:35 pm 16:35 Partly Cloudy 94 34.7 64 17.5 36 36 SSE 14 22 29.53 1000 10 16.0934 0 0
4:55 pm 16:55 Partly Cloudy 94 34.7 63 17.4 36 36 SSE 15 24 29.53 1000 10 16.0934 0 0
5:15 pm 17:15 Sunny 94 34.7 63 17 35 35 SE 16 26 29.53 1000 10 16.0934 0 0
5:35 pm 17:35 Sunny 94 34.6 62 16.8 35 35 SSE 18 30 29.53 1000 10 16.0934 0 0
5:55 pm 17:55 Sunny 92 33.6 63 17 37 37 SSE 17 28 29.53 1000 10 16.0934 0 0
6:15 pm 18:15 Sunny 92 33.1 63 17.3 39 39 SSE 21 33 29.53 1000 10 16.0934 0 0
6:35 pm 18:35 Sunny 91 32.6 64 17.5 41 41 SSE 20 31 29.53 1000 10 16.0934 0 0
6:55 pm 18:55 Sunny 89 31.5 64 17.6 43 43 SSE 17 28 29.53 1000 10 16.0934 0 0
7:15 pm 19:15 Sunny 87 30.5 64 17.9 47 47 SE 12 19 29.56 1001 10 16.0934 0 0
7:35 pm 19:35 Sunny 86 30 64 18 49 49 SE 15 24 29.56 1001 10 16.0934 0 0
7:55 pm 19:55 Clear 85 29.5 64 17.5 48 48 SSE 14 22 29.56 1001 10 16.0934 0 0
8:15 pm 20:15 Clear 84 29 62 16.6 47 47 SSE 13 20 29.56 1001 10 16.0934 0 0
8:35 pm 20:35 Clear 83 28.6 62 16.5 48 48 SE 9 15 29.59 1002 10 16.0934 0 0
8:55 pm 20:55 Clear 83 28.1 62 16.5 49 49 SE 12 19 29.59 1002 10 16.0934 0 0
9:15 pm 21:15 Clear 82 27.8 62 16.6 51 51 SE 10 17 29.62 1003 10 16.0934 0 0
9:35 pm 21:35 Clear 82 27.6 62 16.5 51 51 SSE 13 20 29.62 1003 10 16.0934 0 0
9:55 pm 21:55 Clear 82 27.6 61 16.3 50 50 SSE 13 20 29.62 1003 10 16.0934 0 0
10:15 pm 22:15 Clear 82 27.5 61 16.3 50 50 SE 12 19 29.62 1003 10 16.0934 0 0
10:35 pm 22:35 Clear 81 27.1 62 16.5 52 52 SE 13 20 29.62 1003 10 16.0934 0 0
10:55 pm 22:55 Clear 80 26.6 62 16.5 54 54 SSE 13 20 29.62 1003 10 16.0934 0 0
11:15 pm 23:15 Partly Cloudy with Thunderstorms 80 26.4 62 16.8 56 56 SSE 15 24 29.62 1003 10 16.0934 0 0
11:35 pm 23:35 Partly Cloudy 79 26.1 63 17 57 57 SSE 14 22 29.62 1003 10 16.0934 0 0
11:55 pm 23:55 Mostly Cloudy 79 26.3 63 17 57 57 WNW 7 11 29.65 1004 10 16.0934 0 0

Powered by AerisWeather